Year,Month,Day,Hour,Minute,Value (Times are PST for temperature in C)
2017,10,15,00,00,9.70
2017,10,15,00,01,9.70
2017,10,15,00,02,9.70
2017,10,15,00,03,9.70
2017,10,15,00,04,9.70
2017,10,15,00,05,9.70
2017,10,15,00,06,9.70
2017,10,15,00,07,9.70
2017,10,15,00,08,9.70
2017,10,15,00,09,9.70
2017,10,15,00,10,9.70
2017,10,15,00,11,9.70
2017,10,15,00,12,9.70
2017,10,15,00,13,9.70
2017,10,15,00,14,9.70
2017,10,15,00,15,9.70
2017,10,15,00,16,9.70
2017,10,15,00,17,9.70
2017,10,15,00,18,9.70
2017,10,15,00,19,9.70
2017,10,15,00,20,9.60
2017,10,15,00,21,9.70
2017,10,15,00,22,9.70
2017,10,15,00,23,9.70
2017,10,15,00,24,9.70
2017,10,15,00,25,9.70
2017,10,15,00,26,9.70
2017,10,15,00,27,9.70
2017,10,15,00,28,9.70
2017,10,15,00,29,9.70
2017,10,15,00,30,9.70
2017,10,15,00,31,9.70
2017,10,15,00,32,9.70
2017,10,15,00,33,9.70
2017,10,15,00,34,9.60
2017,10,15,00,35,9.60
2017,10,15,00,36,9.60
2017,10,15,00,37,9.60
2017,10,15,00,38,9.60
2017,10,15,00,39,9.60
2017,10,15,00,40,9.60
2017,10,15,00,41,9.60
2017,10,15,00,42,9.60
2017,10,15,00,43,9.60
2017,10,15,00,44,9.60
2017,10,15,00,45,9.60
2017,10,15,00,46,9.60
2017,10,15,00,47,9.60
2017,10,15,00,48,9.60
2017,10,15,00,49,9.60
2017,10,15,00,50,9.60
2017,10,15,00,51,9.60
2017,10,15,00,52,9.60
2017,10,15,00,53,9.60
2017,10,15,00,54,9.60
2017,10,15,00,55,9.60
2017,10,15,00,56,9.60
2017,10,15,00,57,9.60
2017,10,15,00,58,9.60
2017,10,15,00,59,9.60
2017,10,15,01,00,9.60
2017,10,15,01,01,9.60
2017,10,15,01,02,9.60
2017,10,15,01,03,9.60
2017,10,15,01,04,9.60
2017,10,15,01,05,9.60
2017,10,15,01,06,9.50
2017,10,15,01,07,9.50
2017,10,15,01,08,9.50
2017,10,15,01,09,9.50
2017,10,15,01,10,9.40
2017,10,15,01,11,9.40
2017,10,15,01,12,9.40
2017,10,15,01,13,9.40
2017,10,15,01,14,9.40
2017,10,15,01,15,9.40
2017,10,15,01,16,9.40
2017,10,15,01,17,9.40
2017,10,15,01,18,9.40
2017,10,15,01,19,9.40
2017,10,15,01,20,9.40
2017,10,15,01,21,9.40
2017,10,15,01,22,9.40
2017,10,15,01,23,9.40
2017,10,15,01,24,9.50
2017,10,15,01,25,9.50
2017,10,15,01,26,9.50
2017,10,15,01,27,9.50
2017,10,15,01,28,9.50
2017,10,15,01,29,9.50
2017,10,15,01,30,9.40
2017,10,15,01,31,9.50
2017,10,15,01,32,9.50
2017,10,15,01,33,9.40
2017,10,15,01,34,9.50
2017,10,15,01,35,9.40
2017,10,15,01,36,9.40
2017,10,15,01,37,9.40
2017,10,15,01,38,9.40
2017,10,15,01,39,9.40
2017,10,15,01,40,9.40
2017,10,15,01,41,9.40
2017,10,15,01,42,9.40
2017,10,15,01,43,9.40
2017,10,15,01,44,9.40
2017,10,15,01,45,9.40
2017,10,15,01,46,9.40
2017,10,15,01,47,9.40
2017,10,15,01,48,9.40
2017,10,15,01,49,9.40
2017,10,15,01,50,9.40
2017,10,15,01,51,9.40
2017,10,15,01,52,9.40
2017,10,15,01,53,9.40
2017,10,15,01,54,9.40
2017,10,15,01,55,9.40
2017,10,15,01,56,9.40
2017,10,15,01,57,9.40
2017,10,15,01,58,9.40
2017,10,15,01,59,9.40
2017,10,15,02,00,9.40
2017,10,15,02,01,9.30
2017,10,15,02,02,9.30
2017,10,15,02,03,9.30
2017,10,15,02,04,9.30
2017,10,15,02,05,9.40
2017,10,15,02,06,9.40
2017,10,15,02,07,9.40
2017,10,15,02,08,9.40
2017,10,15,02,09,9.40
2017,10,15,02,10,9.40
2017,10,15,02,11,9.40
2017,10,15,02,12,9.40
2017,10,15,02,13,9.40
2017,10,15,02,14,9.40
2017,10,15,02,15,9.40
2017,10,15,02,16,9.40
2017,10,15,02,17,9.40
2017,10,15,02,18,9.40
2017,10,15,02,19,9.40
2017,10,15,02,20,9.40
2017,10,15,02,21,9.40
2017,10,15,02,22,9.40
2017,10,15,02,23,9.40
2017,10,15,02,24,9.40
2017,10,15,02,25,9.40
2017,10,15,02,26,9.40
2017,10,15,02,27,9.40
2017,10,15,02,28,9.40
2017,10,15,02,29,9.40
2017,10,15,02,30,9.50
2017,10,15,02,31,9.40
2017,10,15,02,32,9.40
2017,10,15,02,33,9.40
2017,10,15,02,34,9.40
2017,10,15,02,35,9.40
2017,10,15,02,36,9.40
2017,10,15,02,37,9.40
2017,10,15,02,38,9.40
2017,10,15,02,39,9.40
2017,10,15,02,40,9.30
2017,10,15,02,41,9.30
2017,10,15,02,42,9.30
2017,10,15,02,43,9.30
2017,10,15,02,44,9.30
2017,10,15,02,45,9.30
2017,10,15,02,46,9.30
2017,10,15,02,47,9.20
2017,10,15,02,48,9.20
2017,10,15,02,49,9.20
2017,10,15,02,50,9.20
2017,10,15,02,51,9.10
2017,10,15,02,52,9.10
2017,10,15,02,53,9.10
2017,10,15,02,54,9.00
2017,10,15,02,55,9.00
2017,10,15,02,56,9.00
2017,10,15,02,57,9.00
2017,10,15,02,58,8.90
2017,10,15,02,59,8.90
2017,10,15,03,00,8.90
2017,10,15,03,01,8.80
2017,10,15,03,02,8.80
2017,10,15,03,03,8.80
2017,10,15,03,04,8.80
2017,10,15,03,05,8.70
2017,10,15,03,06,8.70
2017,10,15,03,07,8.60
2017,10,15,03,08,8.60
2017,10,15,03,09,8.60
2017,10,15,03,10,8.50
2017,10,15,03,11,8.50
2017,10,15,03,12,8.40
2017,10,15,03,13,8.40
2017,10,15,03,14,8.40
2017,10,15,03,15,8.30
2017,10,15,03,16,8.30
2017,10,15,03,17,8.30
2017,10,15,03,18,8.20
2017,10,15,03,19,8.20
2017,10,15,03,20,8.20
2017,10,15,03,21,8.20
2017,10,15,03,22,8.20
2017,10,15,03,23,8.10
2017,10,15,03,24,8.10
2017,10,15,03,25,8.10
2017,10,15,03,26,8.00
2017,10,15,03,27,8.00
2017,10,15,03,28,8.00
2017,10,15,03,29,7.90
2017,10,15,03,30,7.90
2017,10,15,03,31,7.90
2017,10,15,03,32,7.80
2017,10,15,03,33,7.80
2017,10,15,03,34,7.80
2017,10,15,03,35,7.80
2017,10,15,03,36,7.80
2017,10,15,03,37,7.70
2017,10,15,03,38,7.70
2017,10,15,03,39,7.70
2017,10,15,03,40,7.70
2017,10,15,03,41,7.70
2017,10,15,03,42,7.70
2017,10,15,03,43,7.60
2017,10,15,03,44,7.60
2017,10,15,03,45,7.60
2017,10,15,03,46,7.60
2017,10,15,03,47,7.60
2017,10,15,03,48,7.60
2017,10,15,03,49,7.50
2017,10,15,03,50,7.50
2017,10,15,03,51,7.50
2017,10,15,03,52,7.40
2017,10,15,03,53,7.40
2017,10,15,03,54,7.40
2017,10,15,03,55,7.40
2017,10,15,03,56,7.40
2017,10,15,03,57,7.40
2017,10,15,03,58,7.40
2017,10,15,03,59,7.40
2017,10,15,04,00,7.40
2017,10,15,04,01,7.40
2017,10,15,04,02,7.40
2017,10,15,04,03,7.50
2017,10,15,04,04,7.50
2017,10,15,04,05,7.50
2017,10,15,04,06,7.50
2017,10,15,04,07,7.50
2017,10,15,04,08,7.40
2017,10,15,04,09,7.40
2017,10,15,04,10,7.40
2017,10,15,04,11,7.40
2017,10,15,04,12,7.40
2017,10,15,04,13,7.40
2017,10,15,04,14,7.40
2017,10,15,04,15,7.30
2017,10,15,04,16,7.30
2017,10,15,04,17,7.30
2017,10,15,04,18,7.20
2017,10,15,04,19,7.20
2017,10,15,04,20,7.20
2017,10,15,04,21,7.10
2017,10,15,04,22,7.10
2017,10,15,04,23,7.10
2017,10,15,04,24,7.10
2017,10,15,04,25,7.00
2017,10,15,04,26,7.00
2017,10,15,04,27,7.00
2017,10,15,04,28,6.90
2017,10,15,04,29,6.90
2017,10,15,04,30,6.90
2017,10,15,04,31,6.90
2017,10,15,04,32,6.80
2017,10,15,04,33,6.80
2017,10,15,04,34,6.80
2017,10,15,04,35,6.80
2017,10,15,04,36,6.80
2017,10,15,04,37,6.80
2017,10,15,04,38,6.90
2017,10,15,04,39,6.90
2017,10,15,04,40,6.90
2017,10,15,04,41,6.90
2017,10,15,04,42,6.90
2017,10,15,04,43,6.90
2017,10,15,04,44,6.90
2017,10,15,04,45,6.90
2017,10,15,04,46,6.80
2017,10,15,04,47,6.80
2017,10,15,04,48,6.80
2017,10,15,04,49,6.80
2017,10,15,04,50,6.80
2017,10,15,04,51,6.80
2017,10,15,04,52,6.80
2017,10,15,04,53,6.80
2017,10,15,04,54,6.70
2017,10,15,04,55,6.70
2017,10,15,04,56,6.60
2017,10,15,04,57,6.60
2017,10,15,04,58,6.60
2017,10,15,04,59,6.60
2017,10,15,05,00,6.50
2017,10,15,05,01,6.60
2017,10,15,05,02,6.60
2017,10,15,05,03,6.60
2017,10,15,05,04,6.60
2017,10,15,05,05,6.70
2017,10,15,05,06,6.70
2017,10,15,05,07,6.70
2017,10,15,05,08,6.70
2017,10,15,05,09,6.60
2017,10,15,05,10,6.60
2017,10,15,05,11,6.60
2017,10,15,05,12,6.60
2017,10,15,05,13,6.60
2017,10,15,05,14,6.60
2017,10,15,05,15,6.60
2017,10,15,05,16,6.70
2017,10,15,05,17,6.70
2017,10,15,05,18,6.70
2017,10,15,05,19,6.60
2017,10,15,05,20,6.60
2017,10,15,05,21,6.60
2017,10,15,05,22,6.60
2017,10,15,05,23,6.60
2017,10,15,05,24,6.60
2017,10,15,05,25,6.70
2017,10,15,05,26,6.70
2017,10,15,05,27,6.70
2017,10,15,05,28,6.70
2017,10,15,05,29,6.70
2017,10,15,05,30,6.70
2017,10,15,05,31,6.60
2017,10,15,05,32,6.60
2017,10,15,05,33,6.60
2017,10,15,05,34,6.60
2017,10,15,05,35,6.50
2017,10,15,05,36,6.50
2017,10,15,05,37,6.50
2017,10,15,05,38,6.40
2017,10,15,05,39,6.40
2017,10,15,05,40,6.40
2017,10,15,05,41,6.30
2017,10,15,05,42,6.30
2017,10,15,05,43,6.30
2017,10,15,05,44,6.30
2017,10,15,05,45,6.20
2017,10,15,05,46,6.20
2017,10,15,05,47,6.20
2017,10,15,05,48,6.20
2017,10,15,05,49,6.20
2017,10,15,05,50,6.20
2017,10,15,05,51,6.20
2017,10,15,05,52,6.20
2017,10,15,05,53,6.20
2017,10,15,05,54,6.20
2017,10,15,05,55,6.10
2017,10,15,05,56,6.10
2017,10,15,05,57,6.10
2017,10,15,05,58,6.10
2017,10,15,05,59,6.10
2017,10,15,06,00,6.00
2017,10,15,06,01,6.00
2017,10,15,06,02,6.00
2017,10,15,06,03,6.00
2017,10,15,06,04,6.00
2017,10,15,06,05,6.00
2017,10,15,06,06,6.00
2017,10,15,06,07,6.00
2017,10,15,06,08,6.00
2017,10,15,06,09,6.00
2017,10,15,06,10,6.00
2017,10,15,06,11,6.00
2017,10,15,06,12,6.00
2017,10,15,06,13,6.00
2017,10,15,06,14,5.90
2017,10,15,06,15,5.90
2017,10,15,06,16,5.90
2017,10,15,06,17,5.90
2017,10,15,06,18,5.90
2017,10,15,06,19,5.80
2017,10,15,06,20,5.80
2017,10,15,06,21,5.80
2017,10,15,06,22,5.80
2017,10,15,06,23,5.80
2017,10,15,06,24,5.80
2017,10,15,06,25,5.80
2017,10,15,06,26,5.80
2017,10,15,06,27,5.80
2017,10,15,06,28,5.80
2017,10,15,06,29,5.80
2017,10,15,06,30,5.80
2017,10,15,06,31,5.80
2017,10,15,06,32,5.80
2017,10,15,06,33,5.90
2017,10,15,06,34,5.90
2017,10,15,06,35,5.90
2017,10,15,06,36,6.00
2017,10,15,06,37,6.10
2017,10,15,06,38,6.20
2017,10,15,06,39,6.30
2017,10,15,06,40,6.40
2017,10,15,06,41,6.50
2017,10,15,06,42,6.60
2017,10,15,06,43,6.70
2017,10,15,06,44,6.80
2017,10,15,06,45,6.90
2017,10,15,06,46,6.90
2017,10,15,06,47,7.00
2017,10,15,06,48,7.00
2017,10,15,06,49,7.10
2017,10,15,06,50,7.10
2017,10,15,06,51,7.00
2017,10,15,06,52,7.00
2017,10,15,06,53,6.90
2017,10,15,06,54,6.90
2017,10,15,06,55,6.90
2017,10,15,06,56,6.80
2017,10,15,06,57,6.80
2017,10,15,06,58,6.80
2017,10,15,06,59,6.80
2017,10,15,07,00,6.70
2017,10,15,07,01,6.70
2017,10,15,07,02,6.60
2017,10,15,07,03,6.60
2017,10,15,07,04,6.60
2017,10,15,07,05,6.60
2017,10,15,07,06,6.60
2017,10,15,07,07,6.60
2017,10,15,07,08,6.60
2017,10,15,07,09,6.60
2017,10,15,07,10,6.60
2017,10,15,07,11,6.60
2017,10,15,07,12,6.60
2017,10,15,07,13,6.60
2017,10,15,07,14,6.60
2017,10,15,07,15,6.60
2017,10,15,07,16,6.50
2017,10,15,07,17,6.50
2017,10,15,07,18,6.50
2017,10,15,07,19,6.40
2017,10,15,07,20,6.40
2017,10,15,07,21,6.30
2017,10,15,07,22,6.30
2017,10,15,07,23,6.20
2017,10,15,07,24,6.20
2017,10,15,07,25,6.20
2017,10,15,07,26,6.20
2017,10,15,07,27,6.10
2017,10,15,07,28,6.20
2017,10,15,07,29,6.20
2017,10,15,07,30,6.20
2017,10,15,07,31,6.20
2017,10,15,07,32,6.20
2017,10,15,07,33,6.20
2017,10,15,07,34,6.20
2017,10,15,07,35,6.10
2017,10,15,07,36,6.10
2017,10,15,07,37,6.00
2017,10,15,07,38,6.00
2017,10,15,07,39,5.90
2017,10,15,07,40,5.90
2017,10,15,07,41,5.90
2017,10,15,07,42,5.80
2017,10,15,07,43,5.80
2017,10,15,07,44,5.80
2017,10,15,07,45,5.80
2017,10,15,07,46,5.80
2017,10,15,07,47,5.80
2017,10,15,07,48,5.80
2017,10,15,07,49,5.70
2017,10,15,07,50,5.70
2017,10,15,07,51,5.70
2017,10,15,07,52,5.60
2017,10,15,07,53,5.60
2017,10,15,07,54,5.60
2017,10,15,07,55,5.60
2017,10,15,07,56,5.70
2017,10,15,07,57,5.70
2017,10,15,07,58,5.70
2017,10,15,07,59,5.80
2017,10,15,08,00,5.80
2017,10,15,08,01,5.90
2017,10,15,08,02,6.00
2017,10,15,08,03,6.00
2017,10,15,08,04,6.10
2017,10,15,08,05,6.10
2017,10,15,08,06,6.20
2017,10,15,08,07,6.20
2017,10,15,08,08,6.30
2017,10,15,08,09,6.40
2017,10,15,08,10,6.50
2017,10,15,08,11,6.60
2017,10,15,08,12,6.70
2017,10,15,08,13,6.80
2017,10,15,08,14,6.90
2017,10,15,08,15,6.90
2017,10,15,08,16,7.00
2017,10,15,08,17,7.10
2017,10,15,08,18,7.10
2017,10,15,08,19,7.10
2017,10,15,08,20,7.20
2017,10,15,08,21,7.20
2017,10,15,08,22,7.20
2017,10,15,08,23,7.30
2017,10,15,08,24,7.40
2017,10,15,08,25,7.40
2017,10,15,08,26,7.50
2017,10,15,08,27,7.60
2017,10,15,08,28,7.60
2017,10,15,08,29,7.70
2017,10,15,08,30,7.80
2017,10,15,08,31,7.80
2017,10,15,08,32,7.90
2017,10,15,08,33,7.90
2017,10,15,08,34,7.90
2017,10,15,08,35,8.00
2017,10,15,08,36,8.00
2017,10,15,08,37,8.00
2017,10,15,08,38,8.10
2017,10,15,08,39,8.10
2017,10,15,08,40,8.20
2017,10,15,08,41,8.20
2017,10,15,08,42,8.20
2017,10,15,08,43,8.20
2017,10,15,08,44,8.30
2017,10,15,08,45,8.30
2017,10,15,08,46,8.40
2017,10,15,08,47,8.40
2017,10,15,08,48,8.50
2017,10,15,08,49,8.50
2017,10,15,08,50,8.60
2017,10,15,08,51,8.70
2017,10,15,08,52,8.70
2017,10,15,08,53,8.80
2017,10,15,08,54,8.80
2017,10,15,08,55,8.80
2017,10,15,08,56,8.90
2017,10,15,08,57,8.90
2017,10,15,08,58,8.90
2017,10,15,08,59,9.00
2017,10,15,09,00,9.00
2017,10,15,09,01,9.10
2017,10,15,09,02,9.10
2017,10,15,09,03,9.20
2017,10,15,09,04,9.20
2017,10,15,09,05,9.30
2017,10,15,09,06,9.30
2017,10,15,09,07,9.40
2017,10,15,09,08,9.40
2017,10,15,09,09,9.50
2017,10,15,09,10,9.60
2017,10,15,09,11,9.60
2017,10,15,09,12,9.70
2017,10,15,09,13,9.70
2017,10,15,09,14,9.80
2017,10,15,09,15,9.90
2017,10,15,09,16,10.00
2017,10,15,09,17,10.10
2017,10,15,09,18,10.20
2017,10,15,09,19,10.20
2017,10,15,09,20,10.30
2017,10,15,09,21,10.50
2017,10,15,09,22,10.50
2017,10,15,09,23,10.60
2017,10,15,09,24,10.50
2017,10,15,09,25,10.40
2017,10,15,09,26,10.40
2017,10,15,09,27,10.40
2017,10,15,09,28,10.40
2017,10,15,09,29,10.40
2017,10,15,09,30,10.40
2017,10,15,09,31,10.50
2017,10,15,09,32,10.50
2017,10,15,09,33,10.40
2017,10,15,09,34,10.40
2017,10,15,09,35,10.30
2017,10,15,09,36,10.30
2017,10,15,09,37,10.30
2017,10,15,09,38,10.40
2017,10,15,09,39,10.40
2017,10,15,09,40,10.50
2017,10,15,09,41,10.50
2017,10,15,09,42,10.60
2017,10,15,09,43,10.60
2017,10,15,09,44,10.70
2017,10,15,09,45,10.60
2017,10,15,09,46,10.60
2017,10,15,09,47,10.50
2017,10,15,09,48,10.50
2017,10,15,09,49,10.50
2017,10,15,09,50,10.50
2017,10,15,09,51,10.60
2017,10,15,09,52,10.60
2017,10,15,09,53,10.70
2017,10,15,09,54,10.80
2017,10,15,09,55,11.00
2017,10,15,09,56,11.00
2017,10,15,09,57,11.10
2017,10,15,09,58,11.10
2017,10,15,09,59,11.20
2017,10,15,10,00,11.20
2017,10,15,10,01,11.30
2017,10,15,10,02,11.40
2017,10,15,10,03,11.50
2017,10,15,10,04,11.50
2017,10,15,10,05,11.60
2017,10,15,10,06,11.70
2017,10,15,10,07,11.80
2017,10,15,10,08,11.90
2017,10,15,10,09,12.00
2017,10,15,10,10,12.10
2017,10,15,10,11,12.30
2017,10,15,10,12,12.30
2017,10,15,10,13,12.40
2017,10,15,10,14,12.20
2017,10,15,10,15,11.90
2017,10,15,10,16,11.70
2017,10,15,10,17,11.40
2017,10,15,10,18,11.20
2017,10,15,10,19,11.00
2017,10,15,10,20,10.90
2017,10,15,10,21,10.70
2017,10,15,10,22,10.70
2017,10,15,10,23,10.60
2017,10,15,10,24,10.50
2017,10,15,10,25,10.40
2017,10,15,10,26,10.40
2017,10,15,10,27,10.40
2017,10,15,10,28,10.30
2017,10,15,10,29,10.30
2017,10,15,10,30,10.40
2017,10,15,10,31,10.40
2017,10,15,10,32,10.40
2017,10,15,10,33,10.40
2017,10,15,10,34,10.50
2017,10,15,10,35,10.50
2017,10,15,10,36,10.60
2017,10,15,10,37,10.60
2017,10,15,10,38,10.70
2017,10,15,10,39,10.70
2017,10,15,10,40,10.70
2017,10,15,10,41,10.80
2017,10,15,10,42,10.70
2017,10,15,10,43,10.80
2017,10,15,10,44,10.80
2017,10,15,10,45,10.90
2017,10,15,10,46,10.90
2017,10,15,10,47,10.90
2017,10,15,10,48,10.90
2017,10,15,10,49,10.90
2017,10,15,10,50,10.90
2017,10,15,10,51,10.90
2017,10,15,10,52,10.90
2017,10,15,10,53,10.90
2017,10,15,10,54,10.90
2017,10,15,10,55,11.00
2017,10,15,10,56,11.10
2017,10,15,10,57,11.10
2017,10,15,10,58,11.10
2017,10,15,10,59,11.20
2017,10,15,11,00,11.20
2017,10,15,11,01,11.20
2017,10,15,11,02,11.20
2017,10,15,11,03,11.20
2017,10,15,11,04,11.20
2017,10,15,11,05,11.20
2017,10,15,11,06,11.20
2017,10,15,11,07,11.20
2017,10,15,11,08,11.20
2017,10,15,11,09,11.20
2017,10,15,11,10,11.20
2017,10,15,11,11,11.10
2017,10,15,11,12,11.10
2017,10,15,11,13,11.00
2017,10,15,11,14,11.00
2017,10,15,11,15,11.00
2017,10,15,11,16,10.90
2017,10,15,11,17,10.90
2017,10,15,11,18,10.90
2017,10,15,11,19,10.80
2017,10,15,11,20,10.80
2017,10,15,11,21,10.70
2017,10,15,11,22,10.80
2017,10,15,11,23,10.80
2017,10,15,11,24,10.90
2017,10,15,11,25,10.90
2017,10,15,11,26,11.00
2017,10,15,11,27,11.00
2017,10,15,11,28,11.00
2017,10,15,11,29,11.00
2017,10,15,11,30,11.00
2017,10,15,11,31,11.00
2017,10,15,11,32,11.00
2017,10,15,11,33,11.00
2017,10,15,11,34,11.10
2017,10,15,11,35,11.10
2017,10,15,11,36,11.10
2017,10,15,11,37,11.00
2017,10,15,11,38,11.00
2017,10,15,11,39,11.00
2017,10,15,11,40,11.00
2017,10,15,11,41,11.10
2017,10,15,11,42,11.10
2017,10,15,11,43,11.20
2017,10,15,11,44,11.20
2017,10,15,11,45,11.30
2017,10,15,11,46,11.30
2017,10,15,11,47,11.30
2017,10,15,11,48,11.30
2017,10,15,11,49,11.40
2017,10,15,11,50,11.40
2017,10,15,11,51,11.40
2017,10,15,11,52,11.40
2017,10,15,11,53,11.50
2017,10,15,11,54,11.50
2017,10,15,11,55,11.60
2017,10,15,11,56,11.50
2017,10,15,11,57,11.40
2017,10,15,11,58,11.30
2017,10,15,11,59,11.30
2017,10,15,12,00,11.20
2017,10,15,12,01,11.10
2017,10,15,12,02,11.10
2017,10,15,12,03,11.10
2017,10,15,12,04,11.10
2017,10,15,12,05,11.10
2017,10,15,12,06,11.10
2017,10,15,12,07,11.00
2017,10,15,12,08,11.00
2017,10,15,12,09,11.00
2017,10,15,12,10,10.90
2017,10,15,12,11,10.90
2017,10,15,12,12,10.80
2017,10,15,12,13,10.80
2017,10,15,12,14,10.80
2017,10,15,12,15,10.80
2017,10,15,12,16,10.90
2017,10,15,12,17,10.90
2017,10,15,12,18,10.90
2017,10,15,12,19,11.00
2017,10,15,12,20,11.00
2017,10,15,12,21,11.10
2017,10,15,12,22,11.10
2017,10,15,12,23,11.00
2017,10,15,12,24,11.00
2017,10,15,12,25,11.00
2017,10,15,12,26,11.00
2017,10,15,12,27,11.10
2017,10,15,12,28,11.00
2017,10,15,12,29,11.00
2017,10,15,12,30,10.90
2017,10,15,12,31,10.80
2017,10,15,12,32,10.80
2017,10,15,12,33,10.70
2017,10,15,12,34,10.60
2017,10,15,12,35,10.60
2017,10,15,12,36,10.50
2017,10,15,12,37,10.50
2017,10,15,12,38,10.50
2017,10,15,12,39,10.60
2017,10,15,12,40,10.70
2017,10,15,12,41,10.70
2017,10,15,12,42,10.70
2017,10,15,12,43,10.70
2017,10,15,12,44,10.80
2017,10,15,12,45,10.80
2017,10,15,12,46,10.80
2017,10,15,12,47,10.90
2017,10,15,12,48,10.90
2017,10,15,12,49,10.90
2017,10,15,12,50,11.00
2017,10,15,12,51,11.00
2017,10,15,12,52,11.00
2017,10,15,12,53,11.10
2017,10,15,12,54,11.10
2017,10,15,12,55,11.10
2017,10,15,12,56,11.00
2017,10,15,12,57,10.90
2017,10,15,12,58,10.90
2017,10,15,12,59,10.90
2017,10,15,13,00,10.90
2017,10,15,13,01,10.90
2017,10,15,13,02,10.90
2017,10,15,13,03,11.00
2017,10,15,13,04,11.00
2017,10,15,13,05,11.00
2017,10,15,13,06,11.00
2017,10,15,13,07,11.00
2017,10,15,13,08,11.00
2017,10,15,13,09,11.00
2017,10,15,13,10,11.10
2017,10,15,13,11,11.10
2017,10,15,13,12,11.10
2017,10,15,13,13,11.20
2017,10,15,13,14,11.10
2017,10,15,13,15,11.10
2017,10,15,13,16,11.20
2017,10,15,13,17,11.30
2017,10,15,13,18,11.30
2017,10,15,13,19,11.40
2017,10,15,13,20,11.50
2017,10,15,13,21,11.60
2017,10,15,13,22,11.60
2017,10,15,13,23,11.60
2017,10,15,13,24,11.70
2017,10,15,13,25,11.80
2017,10,15,13,26,11.80
2017,10,15,13,27,11.90
2017,10,15,13,28,11.90
2017,10,15,13,29,11.80
2017,10,15,13,30,11.80
2017,10,15,13,31,11.70
2017,10,15,13,32,11.70
2017,10,15,13,33,11.60
2017,10,15,13,34,11.60
2017,10,15,13,35,11.70
2017,10,15,13,36,11.80
2017,10,15,13,37,11.80
2017,10,15,13,38,11.70
2017,10,15,13,39,11.70
2017,10,15,13,40,11.70
2017,10,15,13,41,11.70
2017,10,15,13,42,11.70
2017,10,15,13,43,11.70
2017,10,15,13,44,11.70
2017,10,15,13,45,11.70
2017,10,15,13,46,11.70
2017,10,15,13,47,11.80
2017,10,15,13,48,11.80
2017,10,15,13,49,11.90
2017,10,15,13,50,11.90
2017,10,15,13,51,11.80
2017,10,15,13,52,11.70
2017,10,15,13,53,11.70
2017,10,15,13,54,11.60
2017,10,15,13,55,11.60
2017,10,15,13,56,11.70
2017,10,15,13,57,11.80
2017,10,15,13,58,11.90
2017,10,15,13,59,12.00
2017,10,15,14,00,12.00
2017,10,15,14,01,12.00
2017,10,15,14,02,12.00
2017,10,15,14,03,12.00
2017,10,15,14,04,12.00
2017,10,15,14,05,12.00
2017,10,15,14,06,12.00
2017,10,15,14,07,12.00
2017,10,15,14,08,12.10
2017,10,15,14,09,12.00
2017,10,15,14,10,11.90
2017,10,15,14,11,11.90
2017,10,15,14,12,11.90
2017,10,15,14,13,11.90
2017,10,15,14,14,11.90
2017,10,15,14,15,12.00
2017,10,15,14,16,12.00
2017,10,15,14,17,12.00
2017,10,15,14,18,12.00
2017,10,15,14,19,12.10
2017,10,15,14,20,12.20
2017,10,15,14,21,12.30
2017,10,15,14,22,12.30
2017,10,15,14,23,12.20
2017,10,15,14,24,12.20
2017,10,15,14,25,12.30
2017,10,15,14,26,12.30
2017,10,15,14,27,12.40
2017,10,15,14,28,12.50
2017,10,15,14,29,12.60
2017,10,15,14,30,12.60
2017,10,15,14,31,12.70
2017,10,15,14,32,12.80
2017,10,15,14,33,12.80
2017,10,15,14,34,12.90
2017,10,15,14,35,12.90
2017,10,15,14,36,12.90
2017,10,15,14,37,12.80
2017,10,15,14,38,12.80
2017,10,15,14,39,12.70
2017,10,15,14,40,12.70
2017,10,15,14,41,12.70
2017,10,15,14,42,12.70
2017,10,15,14,43,12.70
2017,10,15,14,44,12.60
2017,10,15,14,45,12.60
2017,10,15,14,46,12.50
2017,10,15,14,47,12.50
2017,10,15,14,48,12.40
2017,10,15,14,49,12.40
2017,10,15,14,50,12.50
2017,10,15,14,51,12.50
2017,10,15,14,52,12.50
2017,10,15,14,53,12.60
2017,10,15,14,54,12.70
2017,10,15,14,55,12.70
2017,10,15,14,56,12.70
2017,10,15,14,57,12.70
2017,10,15,14,58,12.70
2017,10,15,14,59,12.70
2017,10,15,15,00,12.70
2017,10,15,15,01,12.80
2017,10,15,15,02,12.90
2017,10,15,15,03,12.90
2017,10,15,15,04,12.90
2017,10,15,15,05,12.80
2017,10,15,15,06,12.80
2017,10,15,15,07,12.70
2017,10,15,15,08,12.70
2017,10,15,15,09,12.70
2017,10,15,15,10,12.70
2017,10,15,15,11,12.60
2017,10,15,15,12,12.60
2017,10,15,15,13,12.60
2017,10,15,15,14,12.60
2017,10,15,15,15,12.60
2017,10,15,15,16,12.50
2017,10,15,15,17,12.50
2017,10,15,15,18,12.50
2017,10,15,15,19,12.50
2017,10,15,15,20,12.50
2017,10,15,15,21,12.50
2017,10,15,15,22,12.50
2017,10,15,15,23,12.60
2017,10,15,15,24,12.60
2017,10,15,15,25,12.60
2017,10,15,15,26,12.60
2017,10,15,15,27,12.50
2017,10,15,15,28,12.50
2017,10,15,15,29,12.50
2017,10,15,15,30,12.50
2017,10,15,15,31,12.50
2017,10,15,15,32,12.40
2017,10,15,15,33,12.30
2017,10,15,15,34,12.30
2017,10,15,15,35,12.20
2017,10,15,15,36,12.20
2017,10,15,15,37,12.20
2017,10,15,15,38,12.20
2017,10,15,15,39,12.20
2017,10,15,15,40,12.20
2017,10,15,15,41,12.20
2017,10,15,15,42,12.20
2017,10,15,15,43,12.20
2017,10,15,15,44,12.10
2017,10,15,15,45,12.10
2017,10,15,15,46,12.10
2017,10,15,15,47,12.10
2017,10,15,15,48,12.10
2017,10,15,15,49,12.20
2017,10,15,15,50,12.20
2017,10,15,15,51,12.20
2017,10,15,15,52,12.20
2017,10,15,15,53,12.20
2017,10,15,15,54,12.20
2017,10,15,15,55,12.20
2017,10,15,15,56,12.10
2017,10,15,15,57,12.10
2017,10,15,15,58,12.10
2017,10,15,15,59,12.10
2017,10,15,16,00,12.00
2017,10,15,16,01,12.00
2017,10,15,16,02,12.00
2017,10,15,16,03,11.90
2017,10,15,16,04,12.00
2017,10,15,16,05,12.00
2017,10,15,16,06,12.00
2017,10,15,16,07,12.00
2017,10,15,16,08,12.00
2017,10,15,16,09,12.10
2017,10,15,16,10,12.10
2017,10,15,16,11,12.00
2017,10,15,16,12,12.00
2017,10,15,16,13,12.00
2017,10,15,16,14,12.00
2017,10,15,16,15,12.10
2017,10,15,16,16,12.20
2017,10,15,16,17,12.20
2017,10,15,16,18,12.20
2017,10,15,16,19,12.20
2017,10,15,16,20,12.20
2017,10,15,16,21,12.20
2017,10,15,16,22,12.10
2017,10,15,16,23,12.00
2017,10,15,16,24,12.00
2017,10,15,16,25,11.90
2017,10,15,16,26,11.80
2017,10,15,16,27,11.80
2017,10,15,16,28,11.80
2017,10,15,16,29,11.80
2017,10,15,16,30,11.70
2017,10,15,16,31,11.70
2017,10,15,16,32,11.60
2017,10,15,16,33,11.60
2017,10,15,16,34,11.60
2017,10,15,16,35,11.60
2017,10,15,16,36,11.60
2017,10,15,16,37,11.50
2017,10,15,16,38,11.50
2017,10,15,16,39,11.40
2017,10,15,16,40,11.40
2017,10,15,16,41,11.30
2017,10,15,16,42,11.30
2017,10,15,16,43,11.30
2017,10,15,16,44,11.30
2017,10,15,16,45,11.30
2017,10,15,16,46,11.40
2017,10,15,16,47,11.30
2017,10,15,16,48,11.30
2017,10,15,16,49,11.30
2017,10,15,16,50,11.20
2017,10,15,16,51,11.20
2017,10,15,16,52,11.10
2017,10,15,16,53,11.10
2017,10,15,16,54,11.10
2017,10,15,16,55,11.10
2017,10,15,16,56,11.10
2017,10,15,16,57,11.10
2017,10,15,16,58,11.10
2017,10,15,16,59,11.10
2017,10,15,17,00,11.10
2017,10,15,17,01,11.10
2017,10,15,17,02,11.20
2017,10,15,17,03,11.20
2017,10,15,17,04,11.20
2017,10,15,17,05,11.20
2017,10,15,17,06,11.10
2017,10,15,17,07,11.10
2017,10,15,17,08,11.20
2017,10,15,17,09,11.20
2017,10,15,17,10,11.20
2017,10,15,17,11,11.20
2017,10,15,17,12,11.20
2017,10,15,17,13,11.20
2017,10,15,17,14,11.10
2017,10,15,17,15,11.10
2017,10,15,17,16,11.00
2017,10,15,17,17,11.00
2017,10,15,17,18,10.90
2017,10,15,17,19,10.90
2017,10,15,17,20,10.90
2017,10,15,17,21,10.90
2017,10,15,17,22,10.90
2017,10,15,17,23,10.90
2017,10,15,17,24,10.90
2017,10,15,17,25,10.80
2017,10,15,17,26,10.80
2017,10,15,17,27,10.80
2017,10,15,17,28,10.80
2017,10,15,17,29,10.80
2017,10,15,17,30,10.70
2017,10,15,17,31,10.70
2017,10,15,17,32,10.70
2017,10,15,17,33,10.70
2017,10,15,17,34,10.70
2017,10,15,17,35,10.70
2017,10,15,17,36,10.70
2017,10,15,17,37,10.70
2017,10,15,17,38,10.70
2017,10,15,17,39,10.70
2017,10,15,17,40,10.70
2017,10,15,17,41,10.70
2017,10,15,17,42,10.70
2017,10,15,17,43,10.70